EA2CW-13 Weather Reports


Display with metric or nautical units.
time (UTC)temp
F
wind
direction
speed
MPH
gust
MPH
rain 1hr
in
rain 24hr
in
rain mn
in
humidity
%
barometer
mb
20260503173320 62 0.0 0.0 0.00 0.00 0.00 10 1048.0
20260503171744 62 0.0 0.0 0.00 0.00 0.00 10 1047.8
20260503170208 62 0.0 0.0 0.00 0.00 0.00 10 1048.2
20260503130809 73 0.0 0.0 0.00 0.00 0.00 70 1048.7
20260503110321 67 0.0 0.0 0.00 0.00 0.00 69 1049.6
20260503081145 70 0.0 0.0 0.00 0.00 0.00 68 1049.4
20260503072457 67 0.0 0.0 0.00 0.00 0.00 83 1049.6
20260503070921 65 0.0 0.0 0.00 0.00 0.00 86 1049.8
20260503055122 61 0.0 0.0 0.00 0.00 0.00 95 1049.9
20260503053546 60 0.0 0.0 0.00 0.00 0.00 96 1049.9
20260503052010 59 0.0 0.0 0.00 0.00 0.00 96 1049.8
20260503050434 59 0.0 0.0 0.00 0.00 0.00 95 1049.7
20260503044858 59 0.0 0.0 0.00 0.00 0.00 95 1049.7
20260503043322 59 0.0 0.0 0.00 0.00 0.00 95 1049.6
20260503041746 59 0.0 0.0 0.00 0.00 0.00 95 1049.5
20260503040210 59 0.0 0.0 0.00 0.00 0.00 95 1049.6
20260503034634 59 0.0 0.0 0.00 0.00 0.00 94 1049.6
20260503033058 59 0.0 0.0 0.00 0.00 0.00 94 1049.7
20260503031522 60 0.0 0.0 0.00 0.00 0.00 94 1049.8
20260503025946 60 0.0 0.0 0.00 0.00 0.00 93 1049.9
20260503024410 60 0.0 0.0 0.00 0.00 0.00 93 1050.0
20260503022834 60 0.0 0.0 0.00 0.00 0.00 93 1050.2
20260503021258 60 0.0 0.0 0.00 0.00 0.00 92 1050.1
20260503015722 61 0.0 0.0 0.00 0.00 0.00 92 1050.2
20260503014146 61 0.0 0.0 0.00 0.00 0.00 91 1050.3
20260503012610 62 0.0 0.0 0.00 0.00 0.00 90 1050.4
20260503011034 63 0.0 0.0 0.00 0.00 0.00 89 1050.6
20260503005458 62 0.0 0.0 0.00 0.00 0.00 90 1050.7
20260503003922 63 0.0 0.0 0.00 0.00 0.00 89 1050.8
20260503002346 62 0.0 0.0 0.00 0.00 0.00 90 1050.8
20260503000810 62 0.0 0.0 0.00 0.00 0.00 89 1050.6
20260502235234 62 0.0 0.0 0.00 0.00 0.00 87 1050.8
20260502233658 63 0.0 0.0 0.00 0.00 0.00 86 1051.0
20260502232122 63 0.0 0.0 0.00 0.00 0.00 86 1051.2
20260502230547 63 0.0 0.0 0.00 0.00 0.00 87 1051.1
20260502225011 63 0.0 0.0 0.00 0.00 0.00 87 1051.1
20260502223435 63 0.0 0.0 0.00 0.00 0.00 87 1051.0
20260502221859 63 0.0 0.0 0.00 0.00 0.00 87 1051.1
20260502220323 63 0.0 0.0 0.00 0.00 0.00 87 1051.1
20260502214747 63 0.0 0.0 0.00 0.00 0.00 87 1051.0
20260502213211 63 0.0 0.0 0.00 0.00 0.00 87 1051.0
20260502211635 64 0.0 0.0 0.00 0.00 0.00 87 1050.9
20260502210059 64 0.0 0.0 0.00 0.00 0.00 85 1050.8
20260502204523 64 0.0 0.0 0.00 0.00 0.00 85 1050.7
20260502202947 65 0.0 0.0 0.00 0.00 0.00 83 1050.5
20260502201411 66 0.0 0.0 0.00 0.00 0.00 82 1050.4
20260502195835 65 0.0 0.0 0.00 0.00 0.00 82 1050.4
20260502194259 66 0.0 0.0 0.00 0.00 0.00 80 1050.1
20260502192723 66 0.0 0.0 0.00 0.00 0.00 79 1050.0
20260502191147 68 0.0 0.0 0.00 0.00 0.00 77 1049.9
20260502185611 69 0.0 0.0 0.00 0.00 0.00 76 1050.0
20260502184035 73 0.0 0.0 0.00 0.00 0.00 77 1050.2
20260502182459 69 0.0 0.0 0.00 0.00 0.00 78 1050.4
20260502180923 68 0.0 0.0 0.00 0.00 0.00 77 1050.5